DW2516 Weather Reports


Display with metric or nautical units.
time (UTC)temp
F
wind
direction
speed
MPH
gust
MPH
rain 1hr
in
rain 24hr
in
rain mn
in
humidity
%
barometer
mb
20190116154621 40 309 0.0 3.0 0.00 0.00 0.00 72 1012.4
20190116153142 41 307 0.0 4.0 0.00 0.00 0.00 71 1012.6
20190116151559 42 294 0.0 5.0 0.00 0.00 0.00 70 1012.6
20190116150119 43 355 1.0 8.0 0.00 0.00 0.00 68 1012.7
20190116144604 43 312 3.0 7.0 0.00 0.00 0.00 68 1012.8
20190116143041 43 325 3.0 9.0 0.00 0.00 0.00 68 1012.8
20190116141630 43 271 3.0 9.0 0.00 0.00 0.00 68 1012.8
20190116134547 44 286 5.0 11.0 0.00 0.00 0.00 67 1012.9
20190116133112 43 276 3.0 9.0 0.00 0.00 0.00 68 1013.0
20190116131543 43 301 4.0 10.0 0.00 0.00 0.00 68 1013.1
20190116130034 43 266 5.0 11.0 0.00 0.00 0.00 69 1013.0
20190116124522 43 305 3.0 9.0 0.00 0.00 0.00 68 1013.1
20190116123032 43 317 4.0 12.0 0.00 0.00 0.00 67 1013.2
20190116121535 43 284 4.0 13.0 0.00 0.00 0.00 68 1013.3
20190116120049 43 315 4.0 15.0 0.00 0.00 0.00 67 1013.3
20190116114539 43 292 5.0 13.0 0.00 0.00 0.00 67 1013.6
20190116113016 43 291 4.0 11.0 0.00 0.00 0.00 68 1013.8
20190116111516 43 279 5.0 12.0 0.00 0.00 0.00 69 1014.1
20190116110213 42 322 5.0 13.0 0.00 0.00 0.00 69 1014.2
20190116104706 42 12 4.0 15.0 0.00 0.00 0.00 69 1014.3
20190116103219 42 319 4.0 12.0 0.00 0.00 0.00 70 1014.3
20190116101620 42 313 6.0 12.0 0.00 0.00 0.00 69 1014.5
20190116100159 41 279 5.0 14.0 0.00 0.00 0.00 70 1014.7
20190116094636 41 344 6.0 13.0 0.00 0.00 0.00 70 1014.8
20190116093203 41 311 3.0 17.0 0.00 0.00 0.00 70 1014.9
20190116091641 41 345 6.0 15.0 0.00 0.00 0.00 71 1014.9
20190116090104 41 318 5.0 11.0 0.00 0.00 0.00 71 1014.9
20190116084630 41 17 3.0 12.0 0.00 0.00 0.00 71 1014.7
20190116083051 40 328 5.0 10.0 0.00 0.00 0.00 72 1014.7
20190116081547 40 285 3.0 8.0 0.00 0.00 0.00 73 1014.8
20190116074612 40 300 4.0 12.0 0.00 0.00 0.00 73 1014.5
20190116073041 40 331 5.0 13.0 0.00 0.00 0.00 73 1014.4
20190116071526 40 325 4.0 10.0 0.00 0.00 0.00 73 1014.2
20190116070100 40 321 4.0 13.0 0.00 0.00 0.00 73 1013.9
20190116064514 40 277 4.0 17.0 0.00 0.00 0.00 73 1013.7
20190116063029 40 285 4.0 13.0 0.00 0.00 0.00 73 1013.5
20190116061503 40 317 4.0 16.0 0.00 0.00 0.00 73 1013.4
20190116060334 40 310 4.0 15.0 0.00 0.00 0.00 73 1013.3
20190116054638 40 277 3.0 16.0 0.00 0.00 0.00 73 1013.3
20190116053205 40 286 4.0 15.0 0.00 0.00 0.00 73 1013.1
20190116051702 40 243 5.0 12.0 0.00 0.00 0.00 74 1013.3
20190116050253 40 324 5.0 13.0 0.00 0.00 0.00 74 1013.2
20190116044650 40 311 6.0 16.0 0.00 0.00 0.00 74 1013.2
20190116043150 40 326 8.0 18.0 0.00 0.00 0.00 74 1013.0
20190116041630 40 286 7.0 16.0 0.00 0.00 0.00 74 1012.8
20190116040118 40 336 6.0 16.0 0.00 0.00 0.00 75 1012.6
20190116034621 39 334 7.0 15.0 0.00 0.00 0.00 76 1012.6
20190116033115 39 302 5.0 14.0 0.00 0.00 0.00 76 1012.6
20190116031644 39 320 9.0 17.0 0.00 0.00 0.00 75 1012.5
20190116030120 39 321 5.0 18.0 0.00 0.00 0.00 75 1012.5
20190116024611 39 262 6.0 16.0 0.00 0.00 0.00 76 1012.5
20190116023051 39 316 7.0 14.0 0.00 0.00 0.00 76 1012.7
20190116021541 39 349 5.0 15.0 0.00 0.00 0.00 76 1012.7
20190116020036 39 301 8.0 20.0 0.00 0.00 0.00 76 1012.6
20190116014553 39 322 5.0 16.0 0.00 0.00 0.00 76 1012.5
20190116013050 39 271 5.0 13.0 0.00 0.00 0.00 76 1012.7
20190116011547 39 317 6.0 17.0 0.00 0.00 0.00 77 1012.5
20190116010039 39 355 7.0 17.0 0.00 0.00 0.00 77 1012.5
20190116004718 39 304 6.0 19.0 0.00 0.00 0.00 77 1012.4
20190116003208 39 310 7.0 17.0 0.00 0.00 0.00 76 1012.1
20190116001623 39 276 8.0 19.0 0.00 0.00 0.00 77 1012.2
20190116000145 39 355 8.0 23.0 0.00 0.00 0.00 76 1012.1
20190115234723 39 10 8.0 27.0 0.00 0.00 0.00 76 1012.2
20190115233129 39 324 10.0 24.0 0.00 0.00 0.00 76 1012.1
20190115231808 39 335 10.0 22.0 0.00 0.00 0.00 76 1012.0
20190115230208 39 269 9.0 21.0 0.00 0.00 0.00 77 1011.8
20190115224623 39 316 9.0 22.0 0.00 0.00 0.00 76 1012.0
20190115223054 39 284 12.0 25.0 0.00 0.00 0.00 76 1012.0
20190115221550 39 25 9.0 26.0 0.00 0.00 0.00 76 1012.1
20190115220107 39 327 14.0 26.0 0.00 0.00 0.00 77 1012.2
20190115214637 38 273 8.0 18.0 0.00 0.00 0.00 78 1012.3
20190115213039 38 279 10.0 19.0 0.00 0.00 0.00 78 1012.4
20190115211542 38 310 9.0 20.0 0.00 0.00 0.00 78 1012.5
20190115210115 38 261 9.0 21.0 0.00 0.00 0.00 78 1012.4
20190115204616 38 355 11.0 22.0 0.00 0.00 0.00 78 1012.6
20190115203109 38 328 10.0 24.0 0.00 0.00 0.00 77 1012.7
20190115201607 38 328 10.0 24.0 0.00 0.00 0.00 76 1012.6
20190115200050 39 338 8.0 26.0 0.00 0.00 0.00 75 1012.6
20190115194552 39 329 8.0 21.0 0.00 0.00 0.00 74 1012.7
20190115193124 39 281 8.0 18.0 0.00 0.00 0.00 73 1012.7
20190115191537 38 263 7.0 21.0 0.00 0.00 0.00 73 1012.7
20190115190039 38 310 7.0 18.0 0.00 0.00 0.00 72 1012.8
20190115184550 38 202 9.0 17.0 0.00 0.00 0.00 72 1012.8
20190115183017 38 313 6.0 20.0 0.00 0.00 0.00 72 1012.9
20190115181519 38 331 6.0 25.0 0.00 0.00 0.00 72 1012.9
20190115174838 39 315 6.0 19.0 0.00 0.00 0.00 71 1012.8
20190115173223 38 236 9.0 21.0 0.00 0.00 0.00 71 1012.7
20190115171643 38 338 10.0 28.0 0.00 0.00 0.00 72 1012.6
20190115170158 38 325 8.0 28.0 0.00 0.00 0.00 72 1012.6
20190115164735 38 277 10.0 24.0 0.00 0.00 0.00 72 1012.6
20190115163227 38 303 10.0 21.0 0.00 0.00 0.00 72 1012.6
20190115161618 38 360 10.0 20.0 0.00 0.00 0.00 72 1012.6
20190115160116 38 341 9.0 18.0 0.00 0.00 0.00 72 1012.6